GW4477 Weather Reports


time (UTC)temp
C
wind
direction
speed
KPH
gust
KPH
rain 1hr
cm
rain 24hr
cm
rain mn
cm
humidity
%
barometer
mb
20260507124515 2 259 4.8 11.3 0.00 0.33 0.03 94 1018.3
20260507123013 1 235 1.6 4.8 0.00 0.33 0.03 94 1018.3
20260507121518 1 254 3.2 6.4 0.00 0.33 0.03 93 1018.4
20260507120038 0 275 3.2 9.7 0.00 0.33 0.03 93 1018.1
20260507114508 0 254 1.6 8.0 0.00 0.33 0.03 93 1018.3
20260507113033 1 266 1.6 11.3 0.00 0.33 0.03 93 1018.3
20260507111518 1 283 3.2 9.7 0.00 0.33 0.03 93 1018.6
20260507110026 1 238 1.6 6.4 0.00 0.33 0.03 93 1018.7
20260507104525 1 294 1.6 9.7 0.00 0.33 0.03 93 1018.8
20260507103009 1 259 1.6 8.0 0.00 0.33 0.03 93 1018.9
20260507101516 1 257 1.6 8.0 0.00 0.36 0.03 93 1018.9
20260507100034 1 253 3.2 11.3 0.00 0.38 0.03 93 1019.1
20260507094524 1 263 3.2 11.3 0.00 0.48 0.03 93 1019.3
20260507093024 1 277 3.2 9.7 0.00 0.51 0.03 93 1019.7
20260507091513 1 261 1.6 6.4 0.03 0.53 0.03 93 1019.7
20260507090016 1 246 3.2 9.7 0.03 0.53 0.03 93 1019.8
20260507084524 1 243 3.2 12.9 0.03 0.56 0.03 93 1019.9
20260507083026 1 233 3.2 9.7 0.03 0.56 0.03 93 1020.0
20260507081533 1 258 1.6 9.7 0.00 0.53 0.00 93 1020.2
20260507080016 1 259 4.8 6.4 0.00 0.53 0.00 93 1020.4
20260507074529 1 250 3.2 9.7 0.00 0.53 0.00 93 1020.5
20260507073004 1 262 0.0 4.8 0.00 0.56 0.00 92 1020.7
20260507071508 1 248 1.6 4.8 0.00 0.64 0.00 93 1020.9
20260507070014 2 257 1.6 4.8 0.00 0.69 0.00 92 1021.1
20260507064518 2 254 3.2 4.8 0.00 0.71 0.00 93 1021.3
20260507063021 2 257 1.6 3.2 0.00 0.81 0.00 92 1021.4
20260507061506 2 277 0.0 3.2 0.00 0.86 0.00 92 1021.7
20260507060010 2 257 0.0 3.2 0.00 0.91 0.00 92 1021.7
20260507054516 3 294 0.0 3.2 0.00 0.99 0.00 92 1021.7
20260507053023 3 294 0.0 3.2 0.00 1.04 0.00 92 1021.7
20260507051522 3 294 0.0 3.2 0.00 1.09 0.00 92 1021.8
20260507050007 3 306 0.0 3.2 0.00 1.14 0.00 92 1021.9
20260507044516 3 279 0.0 3.2 0.00 1.14 1.14 92 1021.9
20260507043017 4 243 0.0 3.2 0.00 1.14 1.14 92 1021.8
20260507041520 4 243 0.0 4.8 0.00 1.14 1.14 92 1022.1
20260507040026 3 352 0.0 3.2 0.00 1.14 1.14 92 1022.0
20260507034514 3 352 0.0 3.2 0.00 1.14 1.14 92 1022.1
20260507033016 4 352 0.0 3.2 0.00 1.14 1.14 91 1021.9
20260507031519 4 352 0.0 3.2 0.00 1.14 1.14 91 1021.8
20260507030023 5 352 0.0 0.0 0.00 1.14 1.14 91 1021.8
20260507024525 5 352 0.0 3.2 0.00 1.14 1.14 91 1021.5
20260507023016 5 352 0.0 3.2 0.00 1.14 1.14 91 1021.3
20260507021520 5 352 0.0 0.0 0.00 1.14 1.14 91 1021.0
20260507020025 6 352 0.0 0.0 0.00 1.14 1.14 90 1020.9
20260507014526 6 352 0.0 0.0 0.00 1.14 1.14 90 1020.7
20260507013025 6 352 0.0 3.2 0.00 1.14 1.14 90 1020.7
20260507011514 6 352 1.6 3.2 0.00 1.14 1.14 90 1020.8
20260507010030 6 341 3.2 6.4 0.03 1.14 1.14 90 1021.0
20260507004526 6 347 3.2 8.0 0.03 1.14 1.14 89 1020.8
20260507003028 7 338 3.2 4.8 0.08 1.14 1.14 89 1020.8
20260507001530 7 286 0.0 0.0 0.08 1.14 1.14 88 1020.6
20260507000020 7 286 0.0 0.0 0.05 1.12 1.12 88 1020.8
20260506234508 7 286 0.0 3.2 0.05 1.12 1.12 86 1020.8
20260506233025 7 234 0.0 3.2 0.00 1.07 1.07 85 1020.8
20260506231509 7 202 0.0 3.2 0.00 1.07 1.07 83 1020.6
20260506230017 7 198 3.2 9.7 0.00 1.07 1.07 82 1020.5
20260506224527 7 181 1.6 8.0 0.00 1.07 1.07 81 1020.4
20260506223006 8 140 1.6 4.8 0.00 1.07 1.07 81 1020.5
20260506221507 8 188 1.6 4.8 0.00 1.07 1.07 83 1020.1
20260506220028 7 114 0.0 3.2 0.00 1.07 1.07 84 1020.4
20260506214519 7 144 0.0 6.4 0.00 1.07 1.07 86 1020.3
20260506213022 7 135 3.2 6.4 0.00 1.07 1.07 86 1020.5
20260506211527 7 124 3.2 6.4 0.00 1.07 1.07 87 1020.6
20260506210013 7 140 3.2 11.3 0.00 1.07 1.07 87 1020.6
20260506204518 7 102 4.8 11.3 0.03 1.07 1.07 89 1020.7
20260506203026 7 130 4.8 9.7 0.03 1.07 1.07 90 1020.9
20260506201522 6 111 3.2 12.9 0.03 1.07 1.07 90 1021.3
20260506200010 6 165 3.2 8.0 0.03 1.07 1.07 90 1021.1
20260506194517 6 136 3.2 9.7 0.00 1.04 1.04 90 1021.2
20260506193020 6 134 6.4 11.3 0.00 1.04 1.04 90 1021.2
20260506191524 6 125 1.6 12.9 0.03 1.04 1.04 91 1021.2
20260506190027 6 138 3.2 12.9 0.03 1.04 1.04 91 1021.3
20260506184530 6 131 8.0 16.1 0.03 1.04 1.04 91 1021.4
20260506183029 6 169 6.4 12.9 0.05 1.04 1.04 92 1021.5
20260506181522 5 136 6.4 12.9 0.03 1.02 1.02 93 1021.6
20260506180024 5 115 4.8 11.3 0.03 1.02 1.02 93 1021.7
20260506174510 5 114 1.6 11.3 0.03 1.02 1.02 93 1021.7
20260506173004 5 89 3.2 9.7 0.00 0.99 0.99 93 1021.7
20260506171503 4 69 3.2 8.0 0.00 0.99 0.99 93 1021.6
20260506170006 4 57 1.6 8.0 0.00 0.99 0.99 93 1021.4
20260506164514 4 20 3.2 11.3 0.00 0.99 0.99 93 1021.3
20260506163012 3 72 1.6 9.7 0.03 0.99 0.99 93 1021.3
20260506161504 3 92 3.2 9.7 0.03 0.99 0.99 93 1021.3
20260506160006 3 26 4.8 8.0 0.08 0.99 0.99 93 1021.1
20260506154514 3 102 3.2 8.0 0.10 0.99 0.99 93 1021.0
20260506153010 4 347 3.2 8.0 0.10 0.97 0.97 93 1020.8
20260506151518 4 97 1.6 8.0 0.10 0.97 0.97 93 1020.6
20260506150004 4 103 1.6 6.4 0.05 0.91 0.91 93 1020.7
20260506144507 4 118 3.2 8.0 0.03 0.89 0.89 93 1020.6
20260506143009 3 139 3.2 9.7 0.03 0.86 0.86 93 1020.5
20260506141512 4 132 4.8 12.9 0.03 0.86 0.86 93 1020.4
20260506140030 4 111 6.4 11.3 0.03 0.86 0.86 93 1020.5
20260506134505 3 121 3.2 6.4 0.03 0.86 0.86 93 1020.5
20260506133007 3 107 3.2 6.4 0.00 0.84 0.84 93 1020.1
20260506131534 3 113 3.2 9.7 0.00 0.84 0.84 93 1020.2
20260506130032 3 98 1.6 8.0 0.00 0.84 0.84 93 1019.7